Terug naar catalogus

STARLINK-37717

ActiefCommunicatieSSO
NORAD 100226·PAYLOAD·🇺🇸 United States

Gelanceerd Aug 4, 2026 vanaf Vandenberg Space Force Base

Loading…

Volgende Passages (komende 24 uur)

TLE

VersSource: Space-Track

Epoch: Sep 14, 2026, 22:31 UTC

1 A0226U 26177P   26257.93854037  .00046127  00000-0  84345-3 0  9991
2 A0226  97.2835 308.7454 0000727 138.4611 221.6695 15.49236020  7636

Volg STARLINK-37717 in realtime met AllMySat

Download on the App Store